Погода в Квитке

Россия / Иркутская область     56°04′42″N   98°28′49″E
темп.,
°C
ветер,
м/с
пор.,
м/с
влажн.,
%
обл.,
%
осадки,
мм/ч
давл.,
гПа
погр.,
м
18 мая, вт
вт1823:00+4зюз267274 0.0 101196
02:00+2з118037 0.0 101111
05:00+1зюз228599 0.0 101117
08:00+6з3661100 0.0 1010355
11:00+10з3444100 0.0 10071217
14:00+10юз3252100 0.0 10051345
17:00+10юз3257100 0.1 10041277
20:00+9зюз2368100 0.1 1003322
19 мая, ср
ср1923:00+4зюз2896100 0.0 1006161
02:00+3з11965 0.0 100620
05:00+1зюз1198100 0.0 100710
08:00+6зюз128174 0.0 1006293
11:00+12юв1147100 0.0 10041156
14:00+14юв1132100 0.0 10022347
17:00+13всв1133100 0.0 10012144
20:00+10всв2546100 0.0 1002142
20 мая, чт
чт2023:00+8зсз1143100 0.0 100310
02:00+6ю1157100 0.0 100319
05:00+5ююв1177100 0.0 100514
08:00+5з2276100 0.1 1006550
11:00+4ю2396100 2.6 1008551
14:00+8з1277100 3.7 1007770
17:00+7сз3383100 0.4 1007732
20:00+6зсз3692100 0.8 1008315
21 мая, пт
пт2123:00+4сз2798100 0.0 1008254
02:00+4сз2696100 0.0 1008234
05:00+3зсз1398100 0.1 1009113
08:00+4зсз2389100 0.1 1010207
11:00+7ссз3662100 0.1 1011630
14:00+11ссз5831100 0.1 10112414
17:00+12ссз3936100 0.0 10122620
20:00+10сз4850100 0.0 1013420
22 мая, сб
сб2223:00+6зсз2464100 0.0 101599
02:00+4зсз2868100 0.0 1017199
05:00+3з398263 0.1 1018221
08:00+6з49685 0.1 1019470
11:00+11сз584677 0.2 10172222
14:00+13сз6837100 0.3 10172928
17:00+13сз483758 0.0 10162358
20:00+10з5853100 0.0 1018910